(149621) = 2004 EJ32

Discovered at Catalina on 2004-03-15 by CSS.

Orbit

Orbit type: Main Belt

Note: WebGL enabled browser required.

epoch2024-03-31.0
epoch JD2460400.5
perihelion date2020-12-22.27459
perihelion JD2459205.77459
argument of perihelion (°)19.93074
ascending node (°)174.24132
inclination (°)3.67157
eccentricity0.0984825
perihelion distance (AU)2.0096576
Tisserand w.r.t. Jupiter3.6
ΔV w.r.t. Earth (km/sec)8.8
semimajor axis (AU)2.2291943
mean anomaly (°)353.79386
mean daily motion (°/day)0.29612990
aphelion distance (AU)2.449
period (years)3.33
P-vector [x]-0.96949464
P-vector [y]-0.23267590
P-vector [z]-0.07708483
Q-vector [x]0.24502828
Q-vector [y]-0.91174377
Q-vector [z]-0.32967322
absolute magnitude17.15
phase slope0.15
uncertainty0
referenceE2024-GI3
observations used556
oppositions15
arc length (days)10987
first opposition used1994
last opposition used2024
residual rms (arc-secs)0.68
perturbers coarse indicatorM-v
perturbers precise indicator003Ek
first observation date used1994-03-14.0
last observation date used2024-04-12.0
computer nameMPCLINUX
JD of orbit computation2456819.641218
perihelion JD uncertainty (days)5.3643E-05
argument of perihelion uncertainty (°)5.0503E-05
ascending node uncertainty (°)4.7484E-05
inclination uncertainty (°)4.7254E-06
eccentricity uncertainty 4.3219E-08
perihelion distance uncertainty (AU)9.5665E-08
Minimum Orbit Intersection Distances (in AU)
for orbit epoch: 2460400.5, reference: E2024-GI3
Mercury1.58075
Venus1.28901
Earth1.00946
Mars0.36505
Jupiter2.5023
Saturn6.72681
Uranus16.3978
Neptune27.3826

Observations

556 total observations over interval: 1994 03 14.27734 – 2024 03 17.540191
These data are available for download (format description).

Date (UT) J2000 RA J2000 Dec Magn Location Ref
1994 03 14.27734 11 49 37.03 +01 14 40.3 18.6 V 691 – Steward Observatory, Kitt Peak-Spacewatch MPS 175720
1994 03 14.33622 11 49 33.76 +01 15 10.9   691 – Steward Observatory, Kitt Peak-Spacewatch MPS 175720
1994 03 14.40447 11 49 29.95 +01 15 46.4   691 – Steward Observatory, Kitt Peak-Spacewatch MPS 175720
2004 02 26.33309 12 13 27.17 -01 53 19.6 19.8   704 – Lincoln Laboratory ETS, New Mexico MPS 103205
2004 02 26.34415 12 13 26.74 -01 53 16.5 20.0   704 – Lincoln Laboratory ETS, New Mexico MPS 103205
2004 02 26.35522 12 13 26.39 -01 53 11.7 19.9   704 – Lincoln Laboratory ETS, New Mexico MPS 103205
2004 02 26.36633 12 13 26.00 -01 53 08.1 19.6   704 – Lincoln Laboratory ETS, New Mexico MPS 103205
2004 02 26.37751 12 13 25.63 -01 53 04.0 20.0   704 – Lincoln Laboratory ETS, New Mexico MPS 103205
2004 03 15.30757 12 00 29.87 +00 22 19.0 19.3 V 703 – Catalina Sky Survey MPS 101324
2004 03 15.32123 12 00 29.08 +00 22 26.3 19.4 V 703 – Catalina Sky Survey MPS 101324
2004 03 15.33490 12 00 28.40 +00 22 32.4 19.0 V 703 – Catalina Sky Survey MPS 101324
2004 03 15.34866 12 00 27.60 +00 22 39.7 19.0 V 703 – Catalina Sky Survey MPS 101324
2004 03 16.28495 11 59 39.08 +00 30 45.3 19.9   704 – Lincoln Laboratory ETS, New Mexico MPS 102301
2004 03 16.29654 11 59 38.53 +00 30 52.4 19.6   704 – Lincoln Laboratory ETS, New Mexico MPS 102301
2004 03 16.30848 11 59 37.78 +00 30 57.7 19.6   704 – Lincoln Laboratory ETS, New Mexico MPS 102301
2004 03 16.31983 11 59 37.16 +00 31 03.9 19.6   704 – Lincoln Laboratory ETS, New Mexico MPS 102301
2004 03 16.33112 11 59 36.67 +00 31 08.4 19.5   704 – Lincoln Laboratory ETS, New Mexico MPS 102301
2004 03 16.59935 11 59 22.18 +00 33 29.4 20.3   608 – Haleakala-AMOS MPS 101324
2004 03 16.61026 11 59 21.60 +00 33 35.2 19.5   608 – Haleakala-AMOS MPS 101324
2004 03 16.62136 11 59 20.97 +00 33 40.2 19.7   608 – Haleakala-AMOS MPS 101324
2004 03 17.22133 11 58 50.30 +00 38 52.0 18.8 V 691 – Steward Observatory, Kitt Peak-Spacewatch MPS 102301
2004 03 17.25120 11 58 48.67 +00 39 07.5 19.1 V 691 – Steward Observatory, Kitt Peak-Spacewatch MPS 102301
2004 03 17.28013 11 58 47.06 +00 39 22.7 19.4 V 691 – Steward Observatory, Kitt Peak-Spacewatch MPS 102301
2004 03 18.34037 11 57 51.05 +00 48 35.1 19.5   704 – Lincoln Laboratory ETS, New Mexico MPS 102301
2004 03 18.35179 11 57 50.42 +00 48 41.9 19.0   704 – Lincoln Laboratory ETS, New Mexico MPS 102301
2004 03 18.36291 11 57 49.80 +00 48 47.8 19.0   704 – Lincoln Laboratory ETS, New Mexico MPS 102301
2004 03 18.37988 11 57 48.84 +00 48 56.7 18.9   704 – Lincoln Laboratory ETS, New Mexico MPS 102301
2004 03 18.39136 11 57 48.24 +00 49 02.5 18.8   704 – Lincoln Laboratory ETS, New Mexico MPS 102301
2004 03 20.24813 11 56 10.48 +01 05 12.6 18.7 R 699 – Lowell Observatory-LONEOS MPS 103205
2004 03 20.27341 11 56 09.10 +01 05 26.0   699 – Lowell Observatory-LONEOS MPS 103205
2004 03 20.29872 11 56 07.66 +01 05 39.2   699 – Lowell Observatory-LONEOS MPS 103205
2004 03 20.32409 11 56 06.21 +01 05 52.3   699 – Lowell Observatory-LONEOS MPS 103205
2004 03 21.33079 11 55 12.80 +01 14 34.7 19.1   704 – Lincoln Laboratory ETS, New Mexico MPS 102301
2004 03 21.34301 11 55 12.31 +01 14 45.0 19.6   704 – Lincoln Laboratory ETS, New Mexico MPS 102301
2004 03 21.35444 11 55 11.55 +01 14 47.3 19.3   704 – Lincoln Laboratory ETS, New Mexico MPS 102301
2004 03 21.37877 11 55 10.28 +01 15 00.6 18.4   704 – Lincoln Laboratory ETS, New Mexico MPS 102301
2004 03 22.28324 11 54 22.82 +01 22 54.6 18.6   704 – Lincoln Laboratory ETS, New Mexico MPS 102301
2004 03 22.29466 11 54 22.21 +01 22 59.0 19.3   704 – Lincoln Laboratory ETS, New Mexico MPS 102301
2004 03 22.30610 11 54 21.55 +01 23 05.8 19.4   704 – Lincoln Laboratory ETS, New Mexico MPS 102301
2004 03 22.31742 11 54 20.89 +01 23 10.9 19.7   704 – Lincoln Laboratory ETS, New Mexico MPS 102301
2004 03 22.32852 11 54 20.28 +01 23 18.1 19.4   704 – Lincoln Laboratory ETS, New Mexico MPS 102301
2004 03 23.30500 11 53 29.09 +01 31 44.0 19.2 V 691 – Steward Observatory, Kitt Peak-Spacewatch MPS 102301
2004 03 23.33332 11 53 27.52 +01 31 58.7 19.0 V 691 – Steward Observatory, Kitt Peak-Spacewatch MPS 102301
2004 03 23.36223 11 53 25.92 +01 32 13.6 18.6 V 691 – Steward Observatory, Kitt Peak-Spacewatch MPS 102301
2004 03 27.32819 11 50 01.70 +02 05 50.5 19.2   704 – Lincoln Laboratory ETS, New Mexico MPS 103205
2004 03 27.33879 11 50 01.16 +02 05 55.2 19.4   704 – Lincoln Laboratory ETS, New Mexico MPS 103205
2004 03 27.34916 11 50 00.60 +02 06 01.0 19.5   704 – Lincoln Laboratory ETS, New Mexico MPS 103205
2004 03 27.35970 11 50 00.03 +02 06 06.3 19.5   704 – Lincoln Laboratory ETS, New Mexico MPS 103205
2004 03 27.36999 11 49 59.50 +02 06 11.4 19.4   704 – Lincoln Laboratory ETS, New Mexico MPS 103205
2004 03 30.23467 11 47 38.69 +02 29 33.4 21.3 R 683 – Goodricke-Pigott Observatory, Tucson MPS 103205
2004 03 30.24809 11 47 38.11 +02 29 35.5 20.4 R 683 – Goodricke-Pigott Observatory, Tucson MPS 103205
2004 03 30.26144 11 47 37.47 +02 29 43.3 19.7 R 683 – Goodricke-Pigott Observatory, Tucson MPS 103205
2004 04 15.21074 11 37 35.25 +04 14 16.3 19.4 R 699 – Lowell Observatory-LONEOS MPS 105123
2004 04 15.23102 11 37 34.67 +04 14 22.4   699 – Lowell Observatory-LONEOS MPS 105123
2004 04 15.23873 11 37 34.49 +04 14 24.6 19.1   704 – Lincoln Laboratory ETS, New Mexico MPS 104359
2004 04 15.24982 11 37 34.20 +04 14 28.4 19.5   704 – Lincoln Laboratory ETS, New Mexico MPS 104359
2004 04 15.25134 11 37 34.24 +04 14 28.7   699 – Lowell Observatory-LONEOS MPS 105123
2004 04 15.27153 11 37 33.55 +04 14 34.5   699 – Lowell Observatory-LONEOS MPS 105123
2004 04 15.27204 11 37 33.57 +04 14 35.4 19.7   704 – Lincoln Laboratory ETS, New Mexico MPS 104359
2004 04 25.12873 11 34 58.34 +04 50 23.9 19.7 V 691 – Steward Observatory, Kitt Peak-Spacewatch MPS 106266
2004 04 25.16003 11 34 58.06 +04 50 28.3 19.8 V 691 – Steward Observatory, Kitt Peak-Spacewatch MPS 106266
2004 04 25.19237 11 34 57.77 +04 50 32.9 20.4 V 691 – Steward Observatory, Kitt Peak-Spacewatch MPS 106266
2005 08 28.26203 23 20 51.44 -02 57 17.4 20.5 V 691 – Steward Observatory, Kitt Peak-Spacewatch MPS 140207
2005 08 28.27933 23 20 50.53 -02 57 24.8 20.1 V 691 – Steward Observatory, Kitt Peak-Spacewatch MPS 140207
2005 08 28.30353 23 20 49.25 -02 57 35.1 20.3 V 691 – Steward Observatory, Kitt Peak-Spacewatch MPS 140207
2005 09 01.26246 23 17 18.93 -03 26 24.9 20.3 V 691 – Steward Observatory, Kitt Peak-Spacewatch MPS 140207
2005 09 01.27982 23 17 17.95 -03 26 32.5 20.1 V 691 – Steward Observatory, Kitt Peak-Spacewatch MPS 140207
2005 09 01.29711 23 17 16.99 -03 26 40.3 20.1 V 691 – Steward Observatory, Kitt Peak-Spacewatch MPS 140207
2005 09 11.23566 23 08 02.34 -04 42 31.4 19.7 V 691 – Steward Observatory, Kitt Peak-Spacewatch MPS 141707
2005 09 11.25294 23 08 01.35 -04 42 39.6 19.8 V 691 – Steward Observatory, Kitt Peak-Spacewatch MPS 141707
2005 09 11.27029 23 08 00.33 -04 42 47.5 20.2 V 691 – Steward Observatory, Kitt Peak-Spacewatch MPS 141707
2005 10 01.18422 22 51 32.97 -07 00 50.2 20.3 V G96 – Mt. Lemmon Survey MPS 143946
2005 10 01.19089 22 51 32.68 -07 00 52.4 20.4 V G96 – Mt. Lemmon Survey MPS 143946
2005 10 01.19755 22 51 32.40 -07 00 54.7 20.1 V G96 – Mt. Lemmon Survey MPS 143946
2005 10 01.20419 22 51 32.14 -07 00 56.9 20.4 V G96 – Mt. Lemmon Survey MPS 143946
2005 12 02.10393 23 01 03.75 -07 17 34.3 20.8 R 695 – Kitt Peak MPS 159892
2005 12 02.20055 23 01 08.64 -07 17 07.4   695 – Kitt Peak MPS 159892
2006 12 27.28961 08 13 37.30 +14 03 41.7 19.9 V G96 – Mt. Lemmon Survey MPS 192170
2006 12 27.29662 08 13 36.98 +14 03 42.0 20.1 V G96 – Mt. Lemmon Survey MPS 192170
2006 12 27.30384 08 13 36.66 +14 03 42.9 20.1 V G96 – Mt. Lemmon Survey MPS 192170
2006 12 27.31089 08 13 36.33 +14 03 43.6 20.3 V G96 – Mt. Lemmon Survey MPS 192170
2007 01 08.41899 08 02 56.76 +14 33 48.0 19.8 V 703 – Catalina Sky Survey MPS 195507
2007 01 08.42383 08 02 56.58 +14 33 46.8 20.5 V 703 – Catalina Sky Survey MPS 195507
2007 01 08.42867 08 02 56.18 +14 33 50.6 20.1 V 703 – Catalina Sky Survey MPS 195507
2007 01 08.43351 08 02 55.86 +14 33 51.5 19.7 V 703 – Catalina Sky Survey MPS 195507
